Simultaneous Nadir Overpasses (SNOs) Predictions

Prediction of SNOs between NOAA-19 and TERRA Satellite Orbit:

Table of predicted SNOs for the next 14.0 days since TLE Epoch: 9/10/2022
Index Date (NOAA-19) Time (NOAA-19) Lat,Lon (NOAA-19) SZA (NOAA-19 ) Date (TERRA) Time (TERRA) Lat,Lon (TERRA) SZA (TERRA ) Distance(km) Time Diff (sec)
1 09/12/2022 07:28:39 -80.86, -76.30 101.48 09/12/2022 07:28:47 -80.86, -76.19 101.46 2.10 8
2 09/14/2022 13:01:28 80.86, 20.42 79.39 09/14/2022 13:02:26 80.86, 20.28 79.39 2.50 58
3 09/14/2022 13:52:30 -80.86,-172.16 100.59 09/14/2022 13:51:53 -80.86,-172.10 100.60 1.22 37
4 09/16/2022 19:25:19 80.86, -75.30 80.30 09/16/2022 19:25:31 80.87, -75.36 80.31 1.66 12
5 09/19/2022 00:58:13 -80.86, 21.21 98.85 09/19/2022 00:59:10 -80.88, 21.36 98.80 3.40 57
6 09/19/2022 01:49:11 80.86,-171.43 81.18 09/19/2022 01:48:37 80.85,-171.39 81.16 1.43 34
7 09/21/2022 07:22:04 -80.86, -74.78 97.96 09/21/2022 07:22:16 -80.86, -74.72 97.95 1.32 12
8 09/23/2022 12:54:55 80.87, 21.80 82.92 09/23/2022 12:55:54 80.85, 21.80 82.93 1.53 59



Historial Predications of SNOs between NOAA-19 and TERRA
